Regional Weather Roundup
Issued by NWS

Home | Current Version | Previous Version | Graphics & Text | Print | Product List | Glossary Off
Versions: 1 2 3 4 5 6 7 8 9 10 11 12 13 14 15 16 17 18 19 20 21 22 23 24 25 26 27 28 29 30 31 32 33 34 35 36 37 38 39 40 41 42 43 44 45 46 47 48 49 50

000
ASUS43 KMPX 190510
RWRMN
WEATHER ROUNDUP FOR MINNESOTA
NATIONAL WEATHER SERVICE TWIN CITIES/CHANHASSEN MN
1100 PM CST THU DEC 18 2014


NOTE: "FAIR" INDICATES FEW OR NO CLOUDS BELOW 12,000 FEET WITH NO
SIGNIFICANT WEATHER AND/OR OBSTRUCTIONS TO VISIBILITY. N/A MEANS
CURRENT SKY AND/OR WEATHER CONDITIONS ARE NOT AVAILABLE.

MNZ060>063-068>070-190600-
   Twin Cities Metro

CITY           SKY/WX    TMP DP  RH WIND       PRES   REMARKS
TWIN CITIES    CLOUDY    20  14  77 S5        30.28R WCI  13
ST PAUL        CLOUDY    22  16  78 S6        30.30R WCI  14
CRYSTAL        CLOUDY    22  15  75 S3        30.27R
BLAINE         CLOUDY    23  18  80 S5        30.27R WCI  17
LAKEVILLE      CLOUDY    19  16  86 CALM      30.27R
EDEN PRAIRIE   CLOUDY    21  15  78 S7        30.26R WCI  12
SOUTH ST PAUL  CLOUDY    23  17  78 S5        30.28R WCI  16
LAKE ELMO      CLOUDY    23  19  86 S3        30.28R
$$
MNZ001>005-007-008-013>017-022>024-027-028-190600-
   Northwest Minnesota

CITY           SKY/WX    TMP DP  RH WIND       PRES   REMARKS
BEMIDJI        CLOUDY    18  15  89 S8        30.17S WCI   7
HALLOCK        CLOUDY    21  18  86 S14       30.14S WCI   8
ROSEAU         CLOUDY    19  14  79 S9        30.16S WCI   9
WARROAD        CLOUDY    18  12  79 SE7       30.17F WCI   8
THIEF RVR FALL CLOUDY    21  16  79 S9        30.16S WCI  11
CROOKSTON      MOCLDY    19  19 100 S13       30.18R FOG     WCI   7
FOSSTON        CLOUDY    18  16  93 SE8       30.16S WCI   7
DETROIT LAKES  CLOUDY    21  18  86 SE12      30.17S WCI   9
MOORHEAD       MIX PCPN  21  21 100 S13       30.18S WCI   9
PARK RAPIDS    CLOUDY    19  14  81 S9        30.18R WCI   8
MAHNOMEN       CLOUDY    19  15  82 S8        30.16S WCI   9
$$
MNZ006-009>011-018-025>026-190600-
   North Central Minnesota

CITY           SKY/WX    TMP DP  RH WIND       PRES   REMARKS
BAUDETTE       CLOUDY    19  14  81 S6        30.18S WCI  11
FLAG ISLAND    CLOUDY    18  14  86 S14       30.17S WCI   4
INTL FALLS     CLOUDY    20  17  88 CALM      30.20R
WASKISH        CLOUDY    19  16  86 CALM      30.19S
BIG FORK       CLOUDY    21  18  86 S6        30.20R WCI  14
LONGVILLE      CLOUDY    19  18  93 S7        30.20F WCI  10
GRAND RAPIDS   CLOUDY    19  18  93 S10       30.20S WCI   8
CRANE LAKE     CLOUDY    19  19 100 CALM      30.23S
ORR            CLOUDY    21  18  86 S3        30.18S
COOK           CLOUDY    21  19  93 SE5       30.21S WCI  15
WALKER         CLOUDY    17  15  89 SE5       30.19S WCI  10
$$
MNZ012-019>021-037-190600-
   Northeast Minnesota

CITY           SKY/WX    TMP DP  RH WIND       PRES   REMARKS
DULUTH         FLURRIES  22  18  85 S7        30.22R WCI  13
ELY            CLOUDY    21  19  93 CALM      30.21S
HIBBING        CLOUDY    23  17  78 S6        30.20S WCI  16
EVELETH        CLOUDY    23  19  86 S7        30.22S WCI  15
DULUTH HARBOR  CLOUDY    25  21  86 CALM      30.28S
TWO HARBORS    CLOUDY    27  19  74 SE5       30.23R WCI  21
SILVER BAY     CLOUDY    25  19  80 S7        30.23R WCI  17
GRAND MARAIS     N/A     19  13  77 N6        30.29S WCI  11
G MARAIS ARPRT MOCLDY     1  -4  78 N6        30.21S WCI -10
$$
MNZ029>031-032-039>041-046>048-054>057-064-190600-
   West Central Minnesota

CITY           SKY/WX    TMP DP  RH WIND       PRES   REMARKS
FERGUS FALLS   MOCLDY    19  14  79 SE10      30.21S WCI   8
WHEATON        CLOUDY    19  18  93 SE12      30.20R WCI   7
MORRIS         PTCLDY    21  18  86 SE10      30.19R FOG     WCI  10
ALEXANDRIA     CLOUDY    19  14  81 SE9       30.19S WCI   8
ELBOW LAKE     CLOUDY    19  16  88 SE12      30.18S WCI   7
WADENA         CLOUDY    18  16  93 NW9       30.19R WCI   6
GLENWOOD       CLOUDY    19  18  93 SE8       30.20R WCI   9
APPLETON       CLOUDY    23  19  86 SE5       30.20R WCI  17
BENSON         CLOUDY    21  18  86 S9        30.20S WCI  11
ORTONVILLE     MOCLDY    21  18  86 SE7       30.18S WCI  13
MADISON        CLEAR     27  25  93 SE3       30.20R
WILLMAR        MOCLDY    23  19  86 SE6       30.23R WCI  16
$$
MNZ033>034-036-042>043-049>051-058-059-190600-
   Central Minnesota

CITY           SKY/WX    TMP DP  RH WIND       PRES   REMARKS
ST CLOUD       CLOUDY    22  15  75 S7        30.25R WCI  13
SAUK CENTRE    CLOUDY    19  15  86 SE6       30.22R WCI  11
PAYNESVILLE    CLOUDY    18  15  90 E6        30.22F WCI   9
AITKIN         CLOUDY    21  16  79 S6        30.21S WCI  14
PINE RIVER     CLOUDY    18  16  93 S8        30.24R WCI   7
BRAINERD       CLOUDY    18  14  84 S5        30.23S WCI  11
STAPLES        CLOUDY    18  14  86 S7        30.21R WCI   8
LONG PRAIRIE   CLOUDY    19  16  86 SE7       30.21S WCI  10
LITTLE FALLS   CLOUDY    19  14  79 S6        30.24R WCI  11
LITCHFIELD     CLOUDY    21  18  86 SE7       30.23S WCI  13
BUFFALO        CLOUDY    21  16  80 SE5       30.28R WCI  14
MAPLE LAKE     CLOUDY    22  18  87 SE6       30.26R WCI  14
$$
MNZ037-044-045-052-053-190600-
   East Central Minnesota

CITY           SKY/WX    TMP DP  RH WIND       PRES   REMARKS
PRINCETON      CLOUDY    21  18  86 CALM      30.26R
MORA           CLOUDY    21  16  79 S5        30.27S WCI  15
CAMBRIDGE      CLOUDY    23  16  74 S3        30.26R
RUSH CITY      CLOUDY    22  19  87 CALM      30.27R
MOOSE LAKE     CLOUDY    21  19  93 CALM      30.23S
HINCKLEY       CLOUDY    23  21  93 CALM      30.25S
CLOQUET        CLOUDY    21  19  93 S3        30.22S
MCGREGOR       CLOUDY    21  19  93 S6        30.24R WCI  14
$$
MNZ071>073-080-081-089-090-097-098-190600-
   Southwest Minnesota

CITY           SKY/WX    TMP DP  RH WIND       PRES   REMARKS
MONTEVIDEO     CLOUDY    21  21 100 S7        30.21S WCI  13
GRANITE FALLS  CLOUDY    23  20  89 SE7       30.22S WCI  14
CANBY          CLOUDY    24  23  96 SE6       30.19S WCI  17
MARSHALL       CLOUDY    25  19  80 SE5       30.19S WCI  19
REDWOOD FALLS  CLOUDY    24  20  84 SE10      30.22S WCI  14
OLIVIA         CLOUDY    23  19  86 SE7       30.22R WCI  15
PIPESTONE      CLOUDY    27  25  93 S3        30.16R FOG
WINDOM         CLOUDY    25  21  86 CALM      30.20S
WORTHINGTON    CLOUDY    25  21  86 S8        30.19R WCI  16
JACKSON        CLOUDY    27  21  80 S5        30.21R WCI  21
TRACY          CLOUDY    26  24  91 CALM      30.19S
SLAYTON        CLOUDY    26  24  96 CALM      30.18S
$$
MNZ065>067-074>077-082>085-091>093-190600-
   South Central Minnesota

CITY           SKY/WX    TMP DP  RH WIND       PRES   REMARKS
MANKATO        CLOUDY    23  16  74 SE7       30.25R WCI  15
NEW ULM        CLOUDY    21  19  93 SE6       30.24R WCI  14
ST JAMES       CLOUDY    25  21  86 SE5       30.24S WCI  19
FAIRMONT       CLOUDY    25  19  80 S8        30.23R WCI  16
GLENCOE        CLOUDY    22  19  88 E6        30.25R WCI  15
FARIBAULT      CLOUDY    21  18  86 CALM      30.26R
OWATONNA       CLOUDY    21  16  79 SE3       30.25R
WASECA         CLOUDY    23  19  86 SE5       30.26R WCI  17
ALBERT LEA     CLOUDY    23  19  86 S5        30.24R WCI  17
$$
MNZ078>079-086>088-094>096-190600-
   Southeast Minnesota

CITY           SKY/WX    TMP DP  RH WIND       PRES   REMARKS
ROCHESTER      MOCLDY    19  15  84 SE5       30.25S WCI  12
RED WING       CLOUDY    25  18  74 CALM      30.28R
STANTON        CLOUDY    22  17  79 CALM      30.26R
DODGE CENTER   CLOUDY    21  18  86 SE6       30.24S WCI  14
WINONA         CLOUDY    27  21  80 S3        30.30R
AUSTIN         CLOUDY    21  18  86 SE3       30.25R
PRESTON        CLOUDY    21  17  83 CALM      30.26S
$$
ABBREVIATIONS USED IN REMARKS
   TC - TEMPERATURES IN CELSIUS
  WCI - WIND CHILL INDEX
   HX - HEAT INDEX
  VSB - VISIBILITY
$$


USA.gov is the U.S. government's official web portal to all federal, state and local government web resources and services.